Flag for U.S.A. Weather past 2 weeks in Kodiak, Alaska, U.S.A.

42 °F

Light rain. Mostly cloudy.

Feels Like: 32 °F
Forecast: 38 / 41 °F
Wind: 25 mph from East

Location: Kodiak Weather Reporting Station

Current Time: Nov 30, 2015 at 8:57:57 AM

Latest Report: Nov 30, 2015 at 7:53 AM

Visibility: 10 mi

Pressure: 29.25 "Hg

Humidity: 82%

Dew point: 37 °F

Location of KodiakLocation

Historic Weather in Kodiak — Graph


Kodiak temperature yesterday

Maximum temperature yesterday: 40 °F (at 9:53 PM)
Minimum temperature yesterday: 28 °F (at 8:53 AM)
Average temperature yesterday: 34 °F

Past Weeks' High & Low Weather Summary

High47 °F (Nov 20, 8:53 PM)100% (Nov 19, 2:53 AM)30.34 "Hg (Nov 19, 2:53 AM)
Low20 °F (Nov 16, 7:53 AM)36% (Nov 21, 7:53 PM)29.01 "Hg (Nov 27, 8:53 AM)
Average36 °F79%29.68 "Hg
* Reported Nov 15 6:53 AM — Nov 30 6:53 AM, Kodiak, Weather by CustomWeather, © 2015

Note: Actual official high and low records may vary slightly from our data, if they occured in-between our weather recording intervals... More about our weather records


Kodiak weather history for previous 24 hours

Time TempWeatherWind HumidityBarometerVisibility
6:53 AM
Mon, Nov 30
42 °FLight rain. Overcast.32 mph82%29.26 "Hg7 mi
5:53 AM42 °FLight rain. Overcast.26 mph82%29.27 "Hg10 mi
4:53 AM41 °FOvercast.29 mph86%29.28 "Hg10 mi
3:53 AM39 °FLight rain. Fog.25 mph93%29.30 "Hg6 mi
2:53 AM41 °FMostly cloudy.25 mph82%29.31 "Hg10 mi
1:53 AM41 °FLight rain. Overcast.25 mph82%29.31 "Hg10 mi
12:53 AM40 °FMostly cloudy.21 mph86%29.34 "Hg10 mi
11:53 PM
Sun, Nov 29
40 °FMostly cloudy.21 mph83%29.35 "Hg10 mi
10:53 PM39 °FOvercast.21 mph86%29.36 "Hg10 mi
9:53 PM40 °FPassing clouds.22 mph80%29.36 "Hg10 mi
8:53 PM39 °FPassing clouds.17 mph79%29.36 "Hg10 mi
8:01 PM35 °FLight rain. Partly cloudy.N/A92%29.37 "Hg8 mi
7:53 PM32 °FPassing clouds.No wind100%29.37 "Hg10 mi
7:04 PM34 °FPartly cloudy.No wind97%29.38 "Hg10 mi
5:53 PM33 °FPassing clouds.No wind96%29.39 "Hg9 mi
4:53 PM33 °FPartly cloudy.5 mph96%29.40 "Hg10 mi
3:53 PM32 °FBroken clouds.3 mph100%29.41 "Hg10 mi
2:53 PM37 °FBroken clouds.No wind86%29.41 "Hg10 mi
1:53 PM36 °FBroken clouds.No wind85%29.42 "Hg10 mi
12:53 PM36 °FScattered clouds.3 mph89%29.43 "Hg10 mi
11:53 AM34 °FScattered clouds.No wind92%29.44 "Hg10 mi
10:53 AM32 °FScattered clouds.3 mph96%29.43 "Hg10 mi
9:53 AM30 °FScattered clouds.5 mph96%29.43 "Hg10 mi
8:53 AM28 °FPassing clouds.3 mph96%29.44 "Hg10 mi
Weather by CustomWeather, © 2015

See weather overviewHow to use our weather pages